Wind_Speed
54 50 47 64 57 61 53 62 60 60 52 60 57 59 62 65 72 66 53 40 33 26 23 24 19 20 23 25 25 28 24 26 28 26 20 10 9 15 11 11 9 15 11 10 15 11 8 7 6 7 8 7 8 11
49 44 46 51 59 55 55 54 48 53 56 57 53 46 63 59 72 39 44 35 32 21 24 20 21 16 13 6 20 18 19 16 25 25 18 14 10 12 15 8 17 12 14 5 11 6 10 12 10 9 8 8 8 12
46 42 54 42 52 57 53 57 53 57 61 56 47 51 51 57 53 47 40 32 28 23 22 21 20 18 21 18 17 18 17 14 18 23 16 16 10 12 12 16 14 17 15 15 12 6 8 11 11 12 10 10 10 12
42 45 46 49 56 53 58 49 56 63 54 46 48 63 58 54 49 37 33 30 22 25 17 20 20 21 23 23 19 21 12 17 10 20 22 14 12 8 12 13 13 16 13 12 16 14 14 14 12 11 11 11 10 12
45 49 47 53 47 63 55 52 49 58 51 47 52 60 67 53 45 44 34 28 22 20 19 19 18 22 24 23 24 20 17 18 12 21 21 21 18 14 16 20 22 16 15 16 13 12 13 12 11 14 12 11 11 11
39 48 46 41 63 54 54 48 52 42 43 43 57 57 54 55 45 35 36 30 22 19 14 22 20 23 23 25 23 21 22 18 20 19 21 21 19 15 12 20 13 7 8 11 11 15 13 12 11 12 11 11 10 10
41 43 44 55 64 48 57 56 49 50 45 45 59 52 50 46 40 40 37 34 19 21 14 16 21 24 24 23 22 21 22 20 21 22 24 23 21 21 30 30 15 13 14 15 15 13 12 10 10 12 10 10 11 10
43 42 53 58 51 58 52 44 44 43 45 51 49 51 47 53 38 35 30 27 21 18 19 12 15 29 29 28 25 23 21 20 22 24 25 26 26 27 28 17 10 8 9 10 10 10 11 12 12 11 11 11 11 11
58 56 48 49 51 51 42 39 40 50 50 53 58 48 51 46 39 32 30 22 20 22 15 14 17 24 32 30 28 23 21 19 20 25 26 25 32 29 18 11 7 9 12 12 13 12 11 11 12 12 11 12 12 12
49 45 46 48 51 49 44 48 39 52 49 49 47 46 44 42 38 34 30 29 26 25 25 17 19 17 27 35 32 26 20 17 12 19 22 34 45 37 25 22 20 20 22 21 17 15 12 11 10 10 10 12 12 12
45 42 46 42 47 43 42 45 38 47 43 42 47 43 37 42 39 38 23 22 18 16 22 27 21 16 19 31 32 22 12 9 8 13 16 16 41 19 14 18 17 20 21 19 18 15 13 11 10 10 11 11 11 10
42 39 38 40 44 44 44 43 51 51 56 54 52 41 39 38 18 15 17 16 11 18 14 29 26 19 18 25 20 22 12 8 8 10 10 17 25 4 7 12 14 16 18 18 16 15 13 11 12 11 11 10 10 11
43 36 38 39 38 47 40 42 46 48 59 58 43 38 30 23 18 16 22 21 21 17 26 28 36 28 20 23 15 12 12 11 8 9 12 18 7 12 14 14 13 13 15 16 16 15 13 12 11 11 11 10 10 11
41 31 43 36 41 43 41 48 41 45 48 45 34 26 15 17 15 10 29 30 30 27 17 25 32 37 27 25 11 9 11 9 8 13 28 22 16 13 14 12 10 11 12 14 15 14 12 11 11 11 11 11 11 12
38 37 42 41 41 45 47 49 45 42 48 36 26 13 22 14 18 18 13 22 25 22 21 28 32 28 30 13 12 11 10 10 12 16 15 13 11 11 10 10 10 11 14 15 12 11 11 11 10 10 11 11 12 14
40 40 44 39 47 47 45 44 39 37 48 21 17 17 22 20 17 22 23 16 20 24 25 31 23 14 17 12 13 15 11 10 10 10 7 8 8 9 9 10 12 14 15 13 12 11 10 10 10 10 11 12 14 15
45 49 49 45 46 44 43 44 45 44 33 16 19 17 23 25 19 15 18 17 21 30 29 29 16 13 12 15 18 19 29 19 16 14 12 11 9 8 9 11 13 13 12 11 11 10 10 10 10 10 12 14 14 15
38 44 45 48 45 46 45 49 49 34 25 25 21 21 20 25 24 22 17 23 26 29 33 29 22 21 13 15 24 31 31 26 22 19 16 14 10 10 12 13 14 14 13 12 11 10 10 10 10 12 13 14 15 16
37 54 54 57 61 59 60 50 46 21 19 25 25 22 25 23 26 23 19 20 24 26 34 34 16 25 28 14 11 9 9 13 20 19 19 16 13 13 14 15 15 14 12 11 11 11 11 11 12 13 14 15 16 17
53 60 62 61 59 56 36 30 42 19 26 26 30 23 16 18 25 28 24 25 26 30 37 39 35 13 13 24 21 12 12 13 14 16 15 16 16 15 15 16 15 15 13 12 12 11 12 12 13 14 15 16 17 19
40 42 45 49 54 52 32 20 31 23 23 27 25 21 21 14 18 24 29 28 31 36 40 40 36 33 12 8 12 18 20 14 13 13 13 15 16 16 18 18 18 17 15 14 14 13 13 14 16 16 17 17 19 20
27 28 31 31 35 36 31 17 20 26 21 17 29 25 24 22 18 21 26 30 34 33 36 39 35 30 31 24 12 12 15 16 15 14 15 17 18 18 19 19 20 19 18 18 18 17 16 18 18 18 18 19 20 21
26 21 23 24 22 23 16 20 18 22 20 19 16 22 30 28 25 23 29 32 34 33 32 34 32 31 30 26 28 28 23 17 16 14 16 17 18 19 20 21 22 23 24 23 22 23 22 21 20 20 20 21 21 22
27 25 24 18 19 19 19 24 25 20 22 23 25 26 23 34 28 26 29 31 31 29 28 26 27 27 27 29 30 26 25 25 25 21 20 22 22 20 21 22 23 23 24 25 27 27 24 22 22 22 22 22 22 21
32 26 24 29 26 21 22 24 29 29 26 23 24 29 25 24 24 31 33 29 24 20 19 19 19 20 24 25 25 25 26 28 28 26 25 25 25 26 27 26 26 25 26 27 27 25 24 24 24 25 24 22 21 21
30 22 20 19 32 27 29 30 28 31 29 28 21 24 26 29 29 20 29 34 32 28 26 25 23 24 25 24 24 24 25 27 29 31 27 27 27 28 28 28 28 27 27 27 28 28 27 26 26 26 24 22 21 20
25 15 28 26 29 35 30 32 30 27 27 28 32 28 25 18 18 26 29 28 25 23 22 22 26 27 26 26 27 28 30 31 31 30 27 28 29 29 29 30 29 26 28 30 30 30 28 26 26 26 23 22 21 20
38 29 23 27 29 27 31 34 33 32 32 27 26 29 23 17 18 18 17 17 17 19 22 23 21 22 28 28 26 25 27 28 29 29 30 30 30 29 28 28 28 27 28 27 25 23 24 25 26 24 22 21 20 19
37 35 32 25 26 32 32 34 36 37 35 31 30 27 27 22 17 18 17 17 16 15 10 11 18 20 21 22 24 25 26 27 28 28 28 27 26 25 26 27 27 25 24 22 20 19 19 21 22 21 21 20 19 19
41 38 35 37 31 34 33 30 30 27 27 27 26 27 23 18 15 15 16 17 15 11 12 13 14 17 19 21 23 24 26 27 27 27 26 26 25 26 26 25 23 23 23 22 22 22 22 21 20 19 19 18 18 18
29 36 33 35 38 35 28 20 18 20 23 20 16 16 16 17 16 18 18 19 21 21 18 14 13 15 19 22 25 27 27 27 26 26 26 25 25 25 24 23 22 22 22 22 21 20 19 18 18 18 17 17 17 18
38 37 34 34 33 31 31 34 32 30 23 21 17 18 18 18 19 20 21 22 24 22 18 16 15 17 18 20 24 26 26 27 26 25 23 22 21 21 21 20 20 20 20 20 19 18 17 17 17 17 16 16 17 18
39 36 33 31 30 32 33 30 29 30 33 32 27 25 23 22 24 24 22 25 24 23 21 18 20 22 25 27 27 26 26 28 26 22 22 20 19 19 19 20 20 20 20 18 17 17 17 17 17 16 16 17 19 20
Wind_Direction
159 156 163 178 177 176 168 172 175 179 181 180 179 185 183 192 192 192 191 175 182 184 168 161 175 187 186 200 207 191 176 192 189 193 198 192 198 196 203 199 204 207 202 212 215 224 256 202 225 242 295 301 320 330
150 154 171 173 164 173 171 172 176 174 176 168 179 186 193 176 183 178 171 178 172 175 169 162 158 166 204 226 207 204 204 205 198 193 201 204 202 201 209 211 218 213 216 231 220 245 274 290 291 296 291 299 321 328
150 159 176 155 166 169 171 170 163 165 165 174 181 188 188 193 179 172 175 176 180 173 157 165 172 175 174 168 201 197 203 210 219 209 201 204 203 216 215 231 229 229 233 240 258 268 277 281 285 296 292 297 307 312
154 164 158 163 167 172 171 163 161 171 169 167 178 175 186 182 175 183 186 183 176 189 173 171 182 187 187 186 190 185 198 213 238 209 210 211 213 226 233 244 244 237 244 263 271 281 279 280 278 274 283 286 286 292
156 162 159 169 171 168 167 164 160 169 168 178 172 173 182 189 190 193 193 180 171 179 187 178 181 189 190 188 189 189 196 198 207 204 213 227 232 247 257 259 257 255 265 258 288 280 284 289 275 266 274 276 279 281
156 167 169 167 169 167 161 158 163 162 160 173 174 178 182 184 188 195 181 180 188 183 177 164 175 181 186 188 188 194 197 202 209 208 219 231 233 241 257 258 267 244 261 272 276 274 277 275 267 261 258 270 281 285
162 166 172 168 165 157 156 155 164 167 173 175 174 178 179 184 191 193 183 187 190 186 186 164 166 175 175 183 189 194 202 209 214 221 229 234 237 244 252 256 272 279 269 270 274 277 274 264 249 257 269 276 284 289
166 170 178 160 151 153 158 155 160 165 165 165 173 175 182 190 191 186 194 200 187 190 187 169 176 182 186 190 197 204 211 215 220 226 236 239 246 249 257 267 272 258 255 264 267 266 262 259 257 261 271 285 284 288
155 156 153 154 162 167 155 156 163 162 163 170 174 180 184 186 193 196 200 194 199 199 192 196 192 192 198 200 203 208 216 224 232 239 244 249 249 241 256 261 255 254 279 275 280 276 265 259 255 260 270 279 278 284
154 150 150 151 150 148 154 162 167 169 167 173 168 169 172 182 194 194 193 191 195 204 208 204 197 201 197 203 204 207 217 226 246 251 250 251 254 254 252 263 263 271 273 274 274 266 261 260 256 263 268 271 274 281
152 152 152 153 160 160 157 167 170 164 173 177 171 170 180 189 191 194 185 187 193 203 214 211 208 213 204 204 205 202 215 214 246 246 237 255 261 272 250 246 252 252 256 260 257 253 250 256 262 267 273 274 277 287
149 151 161 154 164 163 169 162 167 170 177 180 177 174 174 178 176 185 187 191 201 207 208 208 198 188 189 191 196 204 202 218 239 229 232 255 274 261 225 232 243 249 247 246 245 239 242 253 263 270 273 277 285 293
151 156 161 164 166 168 164 165 179 182 175 174 172 167 167 167 184 188 186 189 199 201 207 206 198 198 188 192 189 185 201 227 234 231 240 242 239 275 273 260 252 246 237 227 228 229 238 251 262 270 273 281 290 296
155 173 164 169 172 168 172 168 175 182 177 180 178 171 179 196 198 189 206 214 220 219 217 207 201 194 197 188 177 194 207 213 229 235 249 269 275 266 255 251 243 233 226 220 214 222 237 251 261 269 277 288 294 296
162 162 163 167 172 173 179 175 180 184 196 182 178 185 195 188 178 193 196 211 214 207 207 195 192 197 189 176 187 194 196 213 224 245 268 267 255 247 241 232 227 223 211 207 212 224 238 251 261 272 284 289 292 295
165 169 171 174 173 181 182 180 183 191 190 186 192 196 192 178 188 199 208 205 203 194 189 188 183 187 188 193 195 199 208 215 226 239 225 238 249 243 230 213 208 204 201 206 217 231 244 256 267 278 285 290 295 302
178 179 179 179 177 182 182 184 189 193 199 194 185 180 180 194 199 194 201 197 191 200 193 185 185 187 194 210 210 213 223 230 244 256 254 263 248 232 212 206 208 205 206 214 225 238 250 261 271 281 287 292 300 303
185 186 178 177 179 183 186 192 194 197 195 196 179 182 185 199 197 195 189 195 200 203 207 196 201 198 196 216 224 239 243 244 249 251 259 256 231 210 205 209 210 207 213 224 235 245 254 265 278 286 293 299 302 304
186 180 180 186 185 187 183 184 192 183 176 171 176 190 205 204 201 201 203 206 212 212 208 208 216 224 220 226 224 238 234 236 243 248 244 236 217 208 213 217 219 220 226 234 245 254 265 278 286 293 296 297 296 301
176 178 181 182 186 187 183 183 192 175 176 179 190 190 184 193 200 205 209 211 208 204 207 213 216 217 222 226 233 232 234 236 237 235 227 216 217 221 222 227 229 231 235 247 253 260 274 283 288 291 295 297 299 304
170 177 185 195 191 190 190 185 193 192 179 188 186 190 200 199 200 204 208 213 208 210 213 219 220 219 211 215 228 235 235 233 228 221 218 224 220 219 227 233 241 240 245 255 255 265 280 288 290 294 295 296 297 300
162 172 172 182 193 200 210 200 199 192 190 189 205 204 205 215 220 212 209 213 221 221 221 221 226 229 227 226 234 239 229 225 230 230 228 226 230 237 240 244 246 246 252 257 259 265 282 291 295 292 289 291 295 299
168 169 187 183 189 193 200 194 194 201 199 202 197 206 212 216 225 223 219 224 227 226 226 230 235 238 235 232 237 236 230 239 246 242 239 236 235 236 239 244 247 252 257 259 260 266 278 286 289 289 287 288 292 294
187 202 192 189 189 194 202 200 198 193 202 208 211 215 215 218 222 228 231 233 231 230 233 236 237 238 235 231 233 236 235 240 241 240 240 242 245 249 253 253 253 255 255 255 261 270 278 282 282 285 287 283 286 289
193 200 210 212 207 202 198 203 211 213 212 208 210 214 220 226 233 238 238 231 231 230 231 237 238 238 237 237 240 237 233 234 238 241 240 245 248 252 258 262 264 264 263 265 269 273 274 277 279 281 284 282 284 284
198 202 202 207 204 203 210 215 214 215 216 218 219 221 222 229 240 248 245 240 245 247 249 248 245 242 243 246 248 248 248 247 247 247 246 251 257 261 263 264 266 266 267 269 269 270 271 271 273 275 280 280 280 280
201 203 206 202 205 209 207 216 223 221 218 217 219 222 228 232 242 247 244 242 246 246 245 243 240 240 242 242 242 242 244 248 251 252 251 252 257 259 262 264 267 268 263 262 263 264 265 264 265 270 274 276 275 275
214 208 208 211 214 218 220 221 219 218 217 219 216 218 222 228 239 243 246 245 253 251 244 239 235 234 236 240 241 241 240 243 248 253 258 261 265 267 267 265 266 264 263 263 262 261 262 259 260 264 268 269 269 274
215 215 210 220 219 217 219 224 227 228 229 231 233 235 240 245 253 255 254 253 252 248 243 222 223 227 231 234 237 241 244 247 251 254 257 259 262 264 263 261 260 260 257 255 255 252 250 252 256 258 259 261 267 276
210 215 218 214 217 216 218 227 231 232 235 236 239 244 247 245 242 239 236 239 240 239 231 227 228 231 235 238 242 245 248 251 255 257 259 260 262 259 259 258 255 254 254 253 253 253 255 254 252 251 253 261 271 278
210 209 213 220 225 227 226 228 232 235 234 230 229 232 225 220 219 213 216 228 238 244 247 244 241 241 241 246 249 252 255 256 259 262 264 264 264 263 263 261 258 258 258 255 254 250 246 244 242 248 258 267 274 280
213 215 219 218 221 222 225 230 239 245 237 223 234 233 228 224 223 226 230 233 235 236 242 256 275 273 267 262 257 255 256 258 258 261 265 265 264 262 262 262 259 253 252 250 246 241 236 238 248 256 263 267 275 283
209 209 211 218 218 219 218 217 226 234 233 237 237 227 226 233 240 244 245 235 234 242 251 268 281 277 263 258 260 260 258 258 259 258 259 260 263 261 257 255 257 255 247 237 231 232 239 245 250 255 263 270 278 283
Height
2778 2791 2803 2820 2835 2847 2861 2876 2891 2905 2918 2932 2946 2961 2974 2985 2993 3009 3020 3030 3042 3049 3057 3061 3069 3073 3078 3084 3087 3092 3100 3102 3107 3112 3115 3116 3116 3119 3120 3120 3120 3123 3125 3124 3127 3126 3120 3119 3121 3122 3121 3119 3118 3117
2785 2797 2809 2825 2840 2853 2866 2880 2894 2908 2920 2935 2949 2962 2974 2985 2996 3010 3018 3030 3039 3049 3056 3061 3067 3074 3079 3083 3087 3090 3095 3096 3100 3105 3109 3112 3112 3114 3116 3116 3117 3119 3118 3119 3119 3116 3114 3114 3114 3114 3115 3115 3114 3113
2796 2806 2823 2831 2845 2859 2873 2887 2897 2911 2925 2938 2950 2962 2973 2985 2998 3011 3020 3028 3039 3047 3055 3061 3065 3070 3074 3079 3084 3088 3092 3095 3098 3103 3106 3107 3110 3111 3111 3111 3112 3112 3113 3113 3113 3111 3110 3110 3110 3110 3110 3110 3110 3109
2806 2818 2827 2838 2852 2865 2879 2888 2902 2916 2927 2940 2952 2965 2978 2987 2999 3010 3018 3027 3038 3046 3052 3058 3063 3068 3072 3076 3081 3085 3089 3092 3097 3099 3103 3104 3107 3107 3107 3108 3107 3109 3108 3108 3107 3107 3106 3105 3105 3106 3106 3106 3106 3105
2817 2827 2838 2849 2858 2870 2880 2893 2905 2920 2932 2943 2954 2966 2980 2990 3000 3010 3019 3029 3038 3047 3049 3055 3061 3066 3070 3075 3078 3082 3086 3090 3093 3097 3099 3101 3103 3104 3103 3102 3099 3102 3102 3102 3102 3103 3102 3102 3101 3101 3102 3102 3102 3101
2825 2836 2847 2854 2865 2874 2888 2897 2912 2922 2935 2945 2957 2968 2979 2991 3002 3013 3022 3031 3037 3043 3047 3053 3059 3063 3067 3072 3076 3080 3084 3087 3090 3093 3095 3096 3099 3101 3098 3092 3095 3097 3098 3098 3098 3097 3097 3097 3097 3097 3097 3098 3097 3096
2832 2842 2851 2859 2869 2880 2893 2905 2916 2926 2938 2948 2961 2971 2983 2995 3006 3015 3022 3031 3037 3041 3048 3051 3057 3061 3066 3070 3074 3078 3081 3084 3087 3090 3091 3093 3095 3095 3089 3085 3091 3093 3093 3093 3093 3092 3093 3093 3093 3093 3093 3093 3092 3092
2837 2846 2855 2866 2876 2889 2900 2909 2919 2930 2942 2953 2964 2977 2987 2996 3005 3016 3023 3029 3036 3041 3046 3048 3052 3060 3064 3067 3072 3075 3079 3082 3084 3085 3086 3089 3089 3088 3079 3082 3085 3086 3087 3088 3088 3088 3088 3088 3088 3088 3088 3088 3088 3087
2844 2855 2864 2874 2885 2893 2903 2913 2923 2934 2945 2956 2967 2977 2986 2998 3007 3013 3021 3028 3035 3042 3041 3045 3049 3054 3060 3064 3069 3074 3077 3079 3081 3080 3083 3085 3078 3072 3074 3078 3080 3082 3083 3082 3083 3083 3083 3083 3083 3084 3084 3084 3083 3083
2853 2863 2871 2879 2891 2901 2909 2918 2928 2937 2948 2958 2971 2980 2988 2996 3006 3016 3023 3026 3031 3034 3038 3041 3045 3050 3055 3060 3065 3072 3075 3077 3076 3076 3078 3071 3059 3065 3072 3072 3073 3075 3076 3076 3077 3078 3078 3078 3079 3079 3079 3079 3079 3079
2861 2870 2878 2887 2897 2905 2914 2923 2931 2942 2952 2959 2967 2975 2983 2994 3005 3012 3017 3023 3027 3030 3032 3037 3043 3049 3054 3058 3062 3070 3071 3072 3071 3071 3070 3059 3048 3062 3064 3063 3065 3066 3067 3069 3069 3071 3072 3073 3074 3075 3075 3075 3075 3074
2868 2876 2884 2892 2902 2911 2919 2927 2936 2943 2949 2956 2966 2976 2987 2998 3004 3009 3013 3017 3018 3023 3025 3032 3040 3046 3050 3056 3061 3066 3068 3069 3065 3064 3062 3049 3050 3055 3057 3057 3057 3059 3061 3063 3064 3066 3067 3068 3069 3070 3070 3071 3070 3070
2875 2883 2891 2899 2906 2914 2923 2930 2937 2944 2951 2961 2975 2982 2986 2991 2996 2998 2999 3003 3007 3011 3017 3024 3033 3042 3048 3053 3056 3060 3061 3062 3060 3057 3048 3044 3049 3052 3052 3052 3052 3053 3055 3056 3058 3060 3062 3064 3065 3066 3066 3066 3067 3066
2881 2888 2896 2901 2911 2918 2923 2931 2938 2947 2957 2966 2971 2977 2982 2984 2985 2988 2993 2999 3005 3012 3019 3023 3029 3035 3041 3046 3051 3053 3054 3054 3052 3044 3036 3043 3046 3046 3046 3045 3047 3049 3050 3052 3054 3057 3059 3060 3061 3062 3062 3063 3062 3061
2883 2891 2898 2907 2913 2919 2926 2933 2941 2950 2956 2963 2969 2972 2973 2976 2982 2987 2992 2998 3004 3010 3016 3019 3026 3032 3035 3041 3043 3044 3045 3042 3037 3033 3037 3038 3039 3040 3040 3041 3042 3044 3046 3049 3051 3053 3055 3056 3057 3058 3058 3058 3058 3057
2886 2895 2902 2907 2913 2921 2929 2937 2945 2950 2955 2960 2964 2964 2969 2976 2981 2986 2991 2996 3001 3007 3012 3018 3022 3026 3029 3030 3031 3032 3032 3028 3029 3031 3033 3034 3036 3036 3036 3037 3039 3041 3043 3046 3048 3050 3052 3053 3054 3054 3054 3054 3053 3053
2888 2891 2900 2906 2913 2920 2929 2937 2942 2948 2954 2955 2958 2964 2969 2976 2981 2986 2990 2994 2999 3004 3007 3011 3015 3019 3021 3022 3022 3020 3019 3025 3027 3030 3031 3032 3033 3033 3034 3035 3037 3039 3042 3044 3046 3047 3048 3049 3049 3050 3050 3050 3050 3049
2887 2891 2899 2905 2912 2919 2927 2933 2939 2944 2947 2951 2959 2964 2968 2974 2979 2983 2987 2992 2995 2999 3004 3007 3009 3010 3012 3011 3011 3014 3019 3021 3024 3026 3027 3029 3030 3030 3031 3033 3035 3038 3040 3041 3042 3043 3044 3045 3046 3046 3046 3046 3045 3044
2888 2892 2899 2906 2910 2917 2922 2929 2937 2940 2946 2952 2958 2962 2966 2971 2976 2981 2985 2989 2993 2998 3001 3003 3005 3004 3006 3008 3011 3013 3014 3016 3019 3021 3023 3024 3026 3027 3029 3030 3032 3035 3036 3038 3039 3039 3040 3041 3041 3041 3041 3040 3039 3038
2892 2897 2901 2907 2912 2918 2923 2929 2934 2940 2945 2949 2955 2960 2964 2967 2972 2977 2981 2985 2988 2991 2994 2994 2996 2999 3002 3006 3009 3011 3012 3014 3016 3017 3018 3020 3022 3024 3025 3028 3029 3030 3032 3033 3034 3035 3035 3036 3036 3035 3035 3034 3033 3032
2894 2898 2903 2908 2912 2917 2921 2926 2931 2938 2942 2948 2952 2957 2961 2965 2968 2972 2976 2979 2980 2981 2984 2987 2992 2997 3001 3003 3005 3007 3009 3011 3012 3013 3015 3017 3019 3020 3022 3023 3024 3025 3026 3027 3028 3029 3030 3030 3030 3029 3029 3028 3027 3026
2895 2900 2904 2909 2915 2919 2922 2926 2932 2937 2943 2946 2952 2954 2958 2962 2966 2969 2971 2971 2973 2977 2980 2984 2987 2992 2997 3000 3001 3003 3004 3006 3008 3010 3012 3014 3015 3017 3018 3019 3020 3021 3022 3022 3022 3023 3024 3024 3024 3024 3023 3022 3021 3019
2895 2900 2905 2910 2914 2918 2923 2926 2931 2934 2940 2943 2947 2951 2955 2959 2961 2964 2963 2964 2968 2972 2976 2980 2983 2987 2991 2994 2996 2999 3001 3002 3004 3006 3009 3011 3012 3013 3013 3014 3015 3015 3016 3017 3017 3017 3018 3017 3017 3017 3016 3015 3014 3013
2893 2898 2901 2905 2908 2913 2917 2921 2926 2931 2934 2938 2942 2946 2950 2953 2955 2956 2956 2960 2965 2969 2973 2976 2979 2982 2985 2987 2989 2993 2996 2997 2998 3000 3002 3004 3006 3008 3008 3008 3008 3009 3010 3010 3010 3010 3011 3011 3010 3009 3009 3008 3008 3007
2893 2897 2898 2898 2902 2907 2911 2916 2921 2926 2929 2932 2938 2940 2944 2947 2949 2949 2950 2955 2959 2964 2968 2970 2973 2975 2978 2980 2983 2986 2988 2988 2990 2992 2994 2996 2998 2999 3000 3000 3001 3002 3002 3002 3002 3003 3003 3003 3002 3002 3001 3000 3000 2999
2886 2887 2890 2890 2897 2903 2906 2911 2915 2918 2924 2930 2933 2936 2940 2943 2944 2942 2944 2951 2955 2959 2961 2964 2967 2969 2971 2974 2977 2979 2982 2982 2983 2983 2986 2987 2989 2990 2992 2992 2993 2994 2994 2994 2993 2993 2994 2994 2994 2994 2993 2993 2992 2992
2877 2877 2879 2884 2890 2895 2901 2906 2911 2916 2919 2922 2926 2932 2935 2936 2935 2936 2943 2946 2948 2950 2952 2955 2958 2961 2963 2964 2967 2969 2971 2973 2974 2976 2978 2978 2979 2981 2982 2982 2983 2986 2983 2983 2983 2983 2984 2985 2985 2985 2985 2985 2985 2985
2866 2870 2875 2882 2887 2892 2896 2901 2905 2908 2911 2915 2920 2922 2925 2927 2930 2936 2936 2937 2939 2940 2943 2946 2949 2951 2953 2956 2958 2960 2962 2964 2966 2968 2968 2969 2970 2971 2971 2972 2972 2973 2972 2972 2973 2974 2974 2975 2976 2977 2978 2978 2978 2978
2859 2865 2874 2877 2882 2886 2890 2893 2896 2901 2905 2909 2913 2916 2919 2923 2927 2928 2929 2930 2931 2934 2937 2938 2941 2944 2946 2948 2950 2952 2954 2955 2957 2958 2960 2961 2961 2963 2962 2962 2962 2963 2963 2964 2965 2966 2967 2967 2968 2969 2970 2971 2971 2971
2852 2859 2866 2872 2875 2878 2883 2888 2892 2897 2900 2903 2907 2909 2913 2916 2919 2921 2923 2925 2927 2930 2932 2934 2936 2938 2940 2942 2943 2944 2945 2947 2948 2950 2951 2953 2953 2953 2953 2954 2955 2955 2956 2957 2958 2959 2959 2960 2961 2963 2963 2964 2965 2964
2848 2854 2859 2864 2869 2876 2881 2886 2888 2891 2894 2897 2900 2903 2906 2909 2911 2914 2917 2919 2921 2923 2925 2928 2930 2932 2934 2935 2935 2936 2937 2939 2940 2941 2942 2943 2944 2944 2945 2946 2947 2947 2948 2949 2950 2951 2953 2954 2956 2957 2957 2958 2958 2957
2841 2846 2852 2857 2864 2870 2874 2878 2882 2885 2889 2891 2895 2898 2900 2902 2905 2908 2911 2913 2915 2917 2920 2921 2923 2925 2926 2926 2926 2927 2929 2930 2931 2933 2934 2935 2935 2936 2937 2938 2939 2939 2940 2941 2943 2945 2947 2948 2950 2951 2951 2952 2951 2951
2835 2841 2846 2852 2857 2862 2868 2872 2874 2877 2881 2883 2887 2892 2894 2897 2898 2902 2904 2906 2909 2911 2913 2915 2915 2916 2916 2916 2917 2918 2919 2921 2923 2925 2926 2927 2928 2929 2930 2930 2931 2932 2933 2935 2937 2939 2941 2942 2943 2944 2945 2945 2945 2944